Home > Time Zones > World Clock > Weather > China > Wuhan > Past weeks

Flag for China Weather past 2 weeks in Wuhan, Hubei, China

Now
81 °F

Sunny.


Feels Like: 84 °F
Forecast: 73 / 84 °F
Wind: No wind

Location: Wuhan Airport

Current Time: Jul 4, 2015 at 4:00:33 PM

Latest Report: Jul 4, 2015 at 3:00 PM


Visibility: 10 mi

Pressure: 29.74 "Hg

Humidity: 70%

Dew point: 70 °F

Location of WuhanLocation

Historic Weather in Wuhan — Graph

°F

Wuhan temperature yesterday

Maximum temperature yesterday: 88 °F (at 12:00 PM)
Minimum temperature yesterday: 77 °F (at 10:00 PM)
Average temperature yesterday: 82 °F

Past Weeks' High & Low Weather Summary

 TemperatureHumidityPressure
High97 °F (Jun 29, 3:00 PM)100% (Jun 21, 3:00 AM)29.80 "Hg (Jun 21, 3:00 AM)
Low70 °F (Jun 21, 2:00 AM)52% (Jul 2, 4:00 PM)29.47 "Hg (Jun 26, 4:00 PM)
Average81 °F82%29.62 "Hg
* Reported Jun 19 2:00 PM — Jul 4 2:00 PM, Wuhan, Weather by CustomWeather, © 2015

Note: Actual official high and low records may vary slightly from our data, if they occured in-between our weather recording intervals... More about our weather records

Advertising

Wuhan weather history for previous 24 hours

 ConditionsComfort  
Time TempWeatherWind HumidityBarometerVisibility
2:00 PM
Sat, Jul 4
81 °FSunny.1 mph70%29.74 "Hg10 mi
1:00 PM81 °FSunny.1 mph66%29.74 "Hg10 mi
12:00 PM81 °FSunny.No wind62%29.74 "Hg10 mi
11:00 AM79 °FPassing clouds.3 mph65%29.77 "HgN/A
10:00 AM77 °FPassing clouds.3 mph69%29.77 "HgN/A
9:00 AM75 °FFog.No wind89%29.77 "Hg3 mi
8:00 AM73 °FLight rain. Fog.No wind94%29.77 "Hg3 mi
7:00 AM72 °FLight rain. Fog.No wind94%29.77 "Hg3 mi
6:00 AM73 °FLight rain. Scattered clouds.1 mph83%29.74 "Hg4 mi
5:00 AM72 °FLight rain. Passing clouds.1 mph94%29.74 "Hg4 mi
4:00 AM73 °FLight rain. Fog.3 mph94%29.71 "Hg2 mi
3:00 AM73 °FLight rain. Fog.6 mph94%29.71 "Hg2 mi
2:00 AM75 °FLight rain. Fog.6 mph100%29.71 "Hg2 mi
1:00 AM75 °FLight rain. Fog.3 mph100%29.71 "Hg2 mi
12:00 AM77 °FLight rain. Fog.3 mph94%29.71 "Hg2 mi
11:00 PM
Fri, Jul 3
77 °FClear.No wind94%29.74 "Hg4 mi
10:00 PM77 °FLight rain. Fog.1 mph94%29.71 "Hg3 mi
9:00 PM79 °FLight rain. Clear.3 mph89%29.71 "Hg4 mi
8:00 PM79 °FLight rain. Clear.No wind89%29.68 "HgN/A
7:00 PM79 °FLight rain. Clear.1 mph84%29.68 "HgN/A
6:00 PM82 °FPassing clouds.3 mph74%29.65 "HgN/A
5:00 PM82 °FSunny.6 mph70%29.62 "Hg10 mi
4:00 PM82 °FLight rain. Scattered clouds.3 mph79%29.62 "HgN/A
Weather by CustomWeather, © 2015

See weather overviewHow to use our weather pages